Location: Newark
(42.8481°N, 0.4872°E)
Time: 09:00:10
(UTC+00:00)

A-11 Canister half - Pass Details

Date: 30 October 2020
Orbit: 1516 x 1684 km, 47.2° (Epoch: 04 December)

Event Time Altitude Azimuth Distance (km) Brightness Sun altitude
Rises 19:47:00 0° 236° (WSW) 4,928 12.2 -32.4°
Reaches altitude 10° 19:50:10 10° 236° (SW) 3,941 11.6 -33.0°
Maximum altitude 20:00:19 79° 151° (SSE) 1,693 8.9 -34.8°
Enters shadow 20:00:50 77° 117° (ESE) 1,702 8.9 -34.9°
